You are not logged in, Click here to log in
機場資訊:LGKR Welcome to Taiwan Airways 台灣虛擬航空
ICAO: LGKR Country: Kerkyra Island
Latitude: 39.6019 Longitude: 19.9117
Total Arrivals: 3 Total Departures: 2
Latest Arrival: 8HTK240 (LTAI-LGKR)Stone. Chang Latest Departure: BV24240 (LGKR-LGSK)Stone. Chang
Scenery:
METAR : LGKR 180350Z 27004KT 9999 FEW011 17/16 Q1017 NOSIG

Ioannis Kapodistrias International Airport